Torna al catalogo

FENGYUN 1C DEB

AttivoSSO
NORAD 32200·DEBRIS·🇨🇳 China

Lanciato May 10, 1999 da Taiyuan Satellite Launch Center

Loading…

Prossimi Passaggi (prossime 24 ore)

TLE

AggiornatoSource: Space-Track

Epoca: Sep 12, 2026, 08:37 UTC

1 32200U 99025CUW 26255.35940785  .00001080  00000-0  55915-3 0  9990
2 32200  98.7676 305.4329 0039404 226.9341 132.8533 14.16625263982364

Traccia FENGYUN 1C DEB in tempo reale con AllMySat

Download on the App Store